| time (UTC) | temp F | wind direction | speed MPH | gust MPH | rain 1hr in | rain 24hr in | rain mn in | humidity % | barometer mb |
| 20260502224729 | 58 | 135 | 0.0 | 1.0 | 0.00 | 0.01 | 0.00 | 92 | 1026.2 |
| 20260502223826 | 58 | 112 | 0.0 | 1.0 | 0.00 | 0.01 | 0.00 | 92 | 1026.2 |
| 20260502222829 | 58 | 116 | 2.0 | 4.0 | 0.00 | 0.01 | 0.00 | 92 | 1026.4 |
| 20260502221925 | 58 | 121 | 4.0 | 7.0 | 0.00 | 0.01 | 0.00 | 91 | 1026.1 |
| 20260502220926 | 58 | 135 | 2.0 | 3.0 | 0.00 | 0.01 | 0.00 | 91 | 1025.4 |
| 20260502220012 | 58 | 135 | 1.0 | 2.0 | 0.00 | 0.01 | 0.00 | 90 | 1025.2 |
| 20260502215014 | 58 | 135 | 0.0 | 1.0 | 0.00 | 0.01 | 0.01 | 90 | 1025.0 |
| 20260502214112 | 58 | 135 | 3.0 | 5.0 | 0.00 | 0.01 | 0.01 | 90 | 1025.1 |
| 20260502214013 | 58 | 135 | 3.0 | 4.0 | 0.00 | 0.01 | 0.01 | 90 | 1025.0 |
| 20260502213014 | 58 | 135 | 2.0 | 4.0 | 0.00 | 0.01 | 0.01 | 89 | 1025.0 |
| 20260502212112 | 58 | 135 | 3.0 | 5.0 | 0.00 | 0.01 | 0.01 | 89 | 1024.8 |
| 20260502212012 | 58 | 135 | 2.0 | 5.0 | 0.00 | 0.01 | 0.01 | 89 | 1024.8 |
| 20260502210012 | 58 | 122 | 0.0 | 2.0 | 0.00 | 0.01 | 0.01 | 88 | 1024.8 |
| 20260502204013 | 59 | 135 | 0.0 | 1.0 | 0.00 | 0.01 | 0.01 | 88 | 1025.4 |
| 20260502203013 | 59 | 135 | 4.0 | 5.0 | 0.00 | 0.01 | 0.01 | 88 | 1025.7 |
| 20260502202013 | 59 | 136 | 3.0 | 5.0 | 0.00 | 0.01 | 0.01 | 87 | 1026.0 |
| 20260502201012 | 59 | 135 | 3.0 | 5.0 | 0.00 | 0.01 | 0.01 | 86 | 1026.3 |
| 20260502195913 | 60 | 135 | 3.0 | 6.0 | 0.00 | 0.01 | 0.01 | 86 | 1026.4 |
| 20260502194911 | 60 | 135 | 1.0 | 4.0 | 0.00 | 0.01 | 0.01 | 86 | 1026.8 |
| 20260502193911 | 61 | 158 | 5.0 | 10.0 | 0.00 | 0.01 | 0.01 | 85 | 1026.8 |
| 20260502192911 | 61 | 157 | 5.0 | 7.0 | 0.00 | 0.01 | 0.01 | 83 | 1026.8 |
| 20260502191914 | 63 | 157 | 1.0 | 5.0 | 0.00 | 0.01 | 0.01 | 82 | 1026.7 |
| 20260502185915 | 64 | 157 | 4.0 | 9.0 | 0.01 | 0.01 | 0.01 | 84 | 1026.5 |
| 20260502184912 | 65 | 157 | 3.0 | 6.0 | 0.01 | 0.01 | 0.01 | 81 | 1026.5 |
| 20260502183913 | 65 | 180 | 3.0 | 4.0 | 0.01 | 0.01 | 0.01 | 79 | 1025.9 |
| 20260502182013 | 67 | 157 | 2.0 | 3.0 | 0.01 | 0.01 | 0.01 | 73 | 1025.8 |
| 20260502180112 | 72 | 159 | 3.0 | 5.0 | 0.00 | 0.00 | 0.00 | 61 | 1025.7 |
| 20260502170111 | 75 | 157 | 4.0 | 5.0 | 0.00 | 0.00 | 0.00 | 52 | 1025.4 |
| 20260502164113 | 77 | 154 | 5.0 | 8.0 | 0.00 | 0.00 | 0.00 | 48 | 1025.8 |
| 20260502164012 | 77 | 153 | 1.0 | 5.0 | 0.00 | 0.00 | 0.00 | 48 | 1025.7 |
| 20260502163013 | 77 | 97 | 1.0 | 4.0 | 0.00 | 0.00 | 0.00 | 47 | 1026.0 |
| 20260502162012 | 76 | 157 | 2.0 | 3.0 | 0.00 | 0.00 | 0.00 | 46 | 1026.0 |
| 20260502161110 | 78 | 173 | 3.0 | 4.0 | 0.00 | 0.00 | 0.00 | 44 | 1026.1 |
| 20260502160112 | 78 | 157 | 3.0 | 4.0 | 0.00 | 0.00 | 0.00 | 45 | 1026.3 |
| 20260502152210 | 78 | 176 | 3.0 | 5.0 | 0.00 | 0.00 | 0.00 | 45 | 1026.5 |
| 20260502150212 | 77 | 180 | 4.0 | 7.0 | 0.00 | 0.00 | 0.00 | 45 | 1027.0 |
| 20260502150112 | 77 | 176 | 2.0 | 4.0 | 0.00 | 0.00 | 0.00 | 45 | 1026.9 |
| 20260502140111 | 79 | 204 | 4.0 | 6.0 | 0.00 | 0.00 | 0.00 | 44 | 1027.7 |
| 20260502123113 | 80 | 202 | 3.0 | 5.0 | 0.00 | 0.00 | 0.00 | 43 | 1028.6 |
| 20260502122113 | 80 | 170 | 4.0 | 7.0 | 0.00 | 0.00 | 0.00 | 43 | 1028.7 |
| 20260502121210 | 81 | 161 | 4.0 | 7.0 | 0.00 | 0.00 | 0.00 | 43 | 1028.8 |
| 20260502120111 | 79 | 180 | 1.0 | 3.0 | 0.00 | 0.00 | 0.00 | 45 | 1028.8 |
| 20260502115112 | 79 | 170 | 3.0 | 6.0 | 0.00 | 0.00 | 0.00 | 45 | 1028.8 |
| 20260502114111 | 77 | 180 | 1.0 | 3.0 | 0.00 | 0.00 | 0.00 | 45 | 1029.0 |
| 20260502113112 | 77 | 157 | 8.0 | 11.0 | 0.00 | 0.00 | 0.00 | 47 | 1029.1 |
| 20260502113012 | 77 | 161 | 7.0 | 12.0 | 0.00 | 0.00 | 0.00 | 47 | 1029.1 |
| 20260502110110 | 74 | 158 | 3.0 | 8.0 | 0.00 | 0.00 | 0.00 | 49 | 1029.5 |
| 20260502105111 | 73 | 159 | 7.0 | 9.0 | 0.00 | 0.00 | 0.00 | 50 | 1029.8 |
| 20260502104112 | 72 | 174 | 6.0 | 13.0 | 0.00 | 0.00 | 0.00 | 50 | 1029.7 |
| 20260502103111 | 72 | 164 | 1.0 | 4.0 | 0.00 | 0.00 | 0.00 | 50 | 1029.8 |
| 20260502101112 | 72 | 177 | 2.0 | 4.0 | 0.00 | 0.00 | 0.00 | 49 | 1030.1 |
| 20260502070912 | 61 | 157 | 4.0 | 5.0 | 0.00 | 0.00 | 0.00 | 56 | 1030.7 |
| 20260502065913 | 59 | 157 | 4.0 | 6.0 | 0.00 | 0.00 | 0.00 | 59 | 1030.8 |
| 20260502064912 | 58 | 158 | 4.0 | 6.0 | 0.00 | 0.00 | 0.00 | 60 | 1030.8 |
| 20260502063911 | 58 | 157 | 5.0 | 6.0 | 0.00 | 0.00 | 0.00 | 61 | 1030.7 |
| 20260502063812 | 57 | 157 | 5.0 | 7.0 | 0.00 | 0.00 | 0.00 | 61 | 1030.8 |
| 20260502062812 | 56 | 157 | 3.0 | 4.0 | 0.00 | 0.00 | 0.00 | 62 | 1030.7 |
| 20260502061011 | 54 | 157 | 2.0 | 4.0 | 0.00 | 0.00 | 0.00 | 65 | 1030.6 |
| 20260502060013 | 54 | 157 | 5.0 | 8.0 | 0.00 | 0.00 | 0.00 | 65 | 1030.7 |
| 20260502055012 | 53 | 157 | 3.0 | 5.0 | 0.00 | 0.00 | 0.00 | 66 | 1030.7 |
| 20260502054912 | 53 | 157 | 5.0 | 7.0 | 0.00 | 0.00 | 0.00 | 66 | 1030.7 |
| 20260502053912 | 52 | 157 | 4.0 | 7.0 | 0.00 | 0.00 | 0.00 | 67 | 1030.6 |
| 20260502052911 | 52 | 157 | 3.0 | 4.0 | 0.00 | 0.00 | 0.00 | 68 | 1030.5 |
| 20260502051912 | 51 | 157 | 3.0 | 6.0 | 0.00 | 0.00 | 0.00 | 68 | 1030.5 |
| 20260502051011 | 51 | 159 | 3.0 | 5.0 | 0.00 | 0.00 | 0.00 | 68 | 1030.4 |
| 20260502050012 | 50 | 156 | 3.0 | 4.0 | 0.00 | 0.00 | 0.00 | 69 | 1030.4 |
| 20260502045013 | 50 | 157 | 2.0 | 4.0 | 0.00 | 0.00 | 0.00 | 69 | 1030.6 |
| 20260502044112 | 49 | 151 | 3.0 | 4.0 | 0.00 | 0.00 | 0.00 | 69 | 1030.4 |
| 20260502043114 | 49 | 141 | 2.0 | 4.0 | 0.00 | 0.00 | 0.00 | 68 | 1030.5 |
| 20260502043013 | 49 | 153 | 1.0 | 4.0 | 0.00 | 0.00 | 0.00 | 68 | 1030.5 |
| 20260502042012 | 49 | 157 | 2.0 | 3.0 | 0.00 | 0.00 | 0.00 | 68 | 1030.5 |
| 20260502041011 | 49 | 143 | 1.0 | 3.0 | 0.00 | 0.00 | 0.00 | 67 | 1030.6 |
| 20260502035011 | 49 | 157 | 2.0 | 3.0 | 0.00 | 0.00 | 0.00 | 67 | 1030.7 |
| 20260502034912 | 50 | 157 | 1.0 | 2.0 | 0.00 | 0.00 | 0.00 | 67 | 1030.7 |
| 20260502033913 | 50 | 157 | 1.0 | 2.0 | 0.00 | 0.00 | 0.00 | 66 | 1030.6 |
| 20260502032911 | 50 | 135 | 1.0 | 2.0 | 0.00 | 0.00 | 0.00 | 66 | 1030.8 |
| 20260502032813 | 50 | 143 | 2.0 | 4.0 | 0.00 | 0.00 | 0.00 | 66 | 1030.8 |
| 20260502030813 | 50 | 157 | 2.0 | 4.0 | 0.00 | 0.00 | 0.00 | 65 | 1031.2 |
| 20260502025910 | 50 | 157 | 2.0 | 4.0 | 0.00 | 0.00 | 0.00 | 65 | 1031.0 |
| 20260502024911 | 50 | 157 | 2.0 | 3.0 | 0.00 | 0.00 | 0.00 | 65 | 1031.0 |
| 20260502023911 | 50 | 157 | 1.0 | 3.0 | 0.00 | 0.00 | 0.00 | 64 | 1031.3 |
| 20260502023010 | 50 | 157 | 0.0 | 2.0 | 0.00 | 0.00 | 0.00 | 64 | 1031.2 |
| 20260502022012 | 49 | 157 | 0.0 | 2.0 | 0.00 | 0.00 | 0.00 | 64 | 1031.2 |
| 20260502021912 | 49 | 157 | 0.0 | 2.0 | 0.00 | 0.00 | 0.00 | 64 | 1031.3 |
| 20260502015011 | 49 | 157 | 0.0 | 1.0 | 0.00 | 0.00 | 0.00 | 62 | 1031.6 |
| 20260502014011 | 49 | 157 | 0.0 | 0.0 | 0.00 | 0.00 | 0.00 | 62 | 1031.4 |
| 20260502013012 | 49 | 157 | 0.0 | 2.0 | 0.00 | 0.00 | 0.00 | 61 | 1031.5 |
| 20260502012110 | 49 | 157 | 2.0 | 3.0 | 0.00 | 0.00 | 0.00 | 59 | 1031.4 |
| 20260502011111 | 50 | 157 | 1.0 | 2.0 | 0.00 | 0.00 | 0.00 | 59 | 1031.6 |
| 20260502005214 | 51 | 157 | 1.0 | 2.0 | 0.00 | 0.00 | 0.00 | 57 | 1032.0 |
| 20260502004212 | 52 | 157 | 1.0 | 2.0 | 0.00 | 0.00 | 0.00 | 56 | 1032.1 |
| 20260502003310 | 52 | 157 | 2.0 | 3.0 | 0.00 | 0.00 | 0.00 | 56 | 1032.1 |
| 20260502002410 | 52 | 157 | 0.0 | 1.0 | 0.00 | 0.00 | 0.00 | 55 | 1032.2 |
| 20260502002310 | 52 | 157 | 0.0 | 0.0 | 0.00 | 0.00 | 0.00 | 55 | 1032.3 |
| 20260502000313 | 53 | 157 | 1.0 | 2.0 | 0.00 | 0.00 | 0.00 | 54 | 1032.4 |
| 20260501235411 | 53 | 157 | 1.0 | 2.0 | 0.00 | 0.00 | 0.00 | 54 | 1032.5 |
| 20260501235312 | 53 | 157 | 0.0 | 1.0 | 0.00 | 0.00 | 0.00 | 54 | 1032.5 |
| 20260501233310 | 53 | 157 | 1.0 | 2.0 | 0.00 | 0.00 | 0.00 | 53 | 1032.6 |
| 20260501232312 | 53 | 157 | 1.0 | 3.0 | 0.00 | 0.00 | 0.00 | 52 | 1032.7 |
| 20260501230410 | 54 | 157 | 1.0 | 2.0 | 0.00 | 0.00 | 0.00 | 50 | 1032.8 |
| 20260501225412 | 55 | 157 | 0.0 | 2.0 | 0.00 | 0.00 | 0.00 | 49 | 1032.7 |